Change the Weather History Date:

Saturday, February 8, 2014

  Actual Average (CYXX) Record (CYXX)
Temperature  
Mean Temperature 28 °F -  
Max Temperature 41 °F 44 °F 57 °F (2015)
Min Temperature 14 °F 32 °F 24 °F (2014)
Degree Days  
Heating Degree Days 38    
Moisture  
Dew Point 9 °F    
Average Humidity 47    
Maximum Humidity 83    
Minimum Humidity 8    
Precipitation  
Precipitation 0.00 in - - ()
Sea Level Pressure  
Sea Level Pressure 29.98 in    
Wind  
Wind Speed 3 mph ()    
Max Wind Speed 9 mph    
Max Gust Speed -    
Averages and records for this station are not official NWS values.
T = Trace of Precipitation, MM = Missing Value Source: Averaged Metar Reports

Daily Weather History Graph

Daily Weather History Graph

Search for Another Location

Airport or City:

Trip Planner

Search our weather history database for the weather conditions in past years. The results will help you decide how hot, cold, wet, or windy it might be!

Date:

Astronomy

Feb. 08, 2014 Rise Set
Actual Time 7:31 AM PST 5:19 PM PST
Civil Twilight 6:57 AM PST 5:52 PM PST
Nautical Twilight 6:20 AM PST 6:30 PM PST
Astronomical Twilight 5:43 AM PST 7:07 PM PST
Moon 12:08 PM PST (2/8) 2:56 AM PST (2/8)
Length of Visible Light 10h 55m
Length of Day
9h 48m
Waxing Gibbous, 69% of the Moon is Illuminated
Feb 8
Waxing Gibbous
Feb 14
Full
Feb 22
Last Quarter
Mar 1
New
Mar 8
First Quarter

Hourly Weather History & Observations

Time (PST) Temp. Windchill Dew Point Humidity Pressure Visibility Wind Dir Wind Speed Gust Speed Precip Events Conditions
12:00 AM 29.1 °F 23.0 °F 2.7 °F 32% 29.92 in - NE 5.8 mph - N/A   Unknown
1:00 AM 29.5 °F 22.5 °F 2.1 °F 31% 29.94 in - NE 6.9 mph - N/A   Unknown
2:00 AM 29.3 °F 22.3 °F 1.4 °F 30% 29.95 in - ENE 6.9 mph - N/A   Unknown
3:00 AM 23.5 °F - 7.9 °F 51% 29.98 in - ESE 2.3 mph - N/A   Unknown
4:00 AM 21 °F - 10 °F 48% 30.01 in - SSW 1.2 mph - -  
4:00 AM 21.0 °F - 11.3 °F 66% 30.01 in - SSW 1.2 mph - N/A   Unknown
5:00 AM 18.0 °F - 9.7 °F 70% 30.01 in - SE 1.2 mph - N/A   Unknown
6:00 AM 17.1 °F - 12.6 °F 82% 30.02 in - WNW 1.2 mph - N/A   Unknown
7:00 AM 16.0 °F - 11.7 °F 83% 30.04 in - NNE 1.2 mph - N/A   Unknown
8:00 AM 16.9 °F - 11.7 °F 80% 30.06 in - WNW 1.2 mph - N/A   Unknown
9:00 AM 25.7 °F - 14.4 °F 62% 30.08 in - WNW 1.2 mph - N/A   Unknown
10:00 AM 31 °F - 8 °F 24% 30.09 in - SSE 1.2 mph - -  
10:00 AM 31.5 °F - 8.1 °F 37% 30.09 in - SSE 1.2 mph - N/A   Unknown
11:00 AM 34.3 °F - 5.4 °F 30% 30.09 in - SSE 1.2 mph - N/A   Unknown
12:00 PM 34.7 °F 30.6 °F 6.1 °F 30% 30.06 in - SSW 4.6 mph - N/A   Unknown
1:00 PM 37.2 °F - 4.1 °F 25% 30.03 in - South 2.3 mph - N/A   Unknown
2:00 PM 38.1 °F 35.7 °F 4.1 °F 24% 30.00 in - South 3.5 mph - N/A   Unknown
3:00 PM 40.3 °F - 2.5 °F 21% 29.96 in - South 2.3 mph - N/A   Unknown
4:00 PM 40 °F - 0 °F 8% 29.92 in - NE 9.2 mph - -  
4:00 PM 40.5 °F 34.6 °F 0.1 °F 18% 29.92 in - NE 9.2 mph - N/A   Unknown
5:00 PM 35.8 °F - 6.6 °F 30% 29.88 in - NW 2.3 mph - N/A   Unknown
6:00 PM 31.3 °F 26.6 °F 13.3 °F 47% 29.89 in - West 4.6 mph - N/A   Unknown
7:00 PM 29.8 °F - 17.6 °F 60% 29.91 in - SSW 2.3 mph - N/A   Unknown
8:00 PM 28.8 °F - 18.7 °F 66% 29.92 in - ESE 2.3 mph - N/A   Unknown
9:00 PM 28.2 °F - 17.6 °F 64% 29.93 in - ESE 2.3 mph - N/A   Unknown
10:00 PM 27 °F - 18 °F 59% 29.94 in - Calm Calm - -  
10:00 PM 26.6 °F - 18.3 °F 71% 29.94 in - Calm Calm - N/A   Unknown
11:00 PM 25.5 °F - 18.9 °F 76% 29.94 in - SSE 1.2 mph - N/A   Unknown